{"data":{"norad_id":47388,"intl_designator":"2021-005AR","name":"STARLINK-2109","alt_names":[],"object_type":"PAYLOAD","status":"ACTIVE","operator":null,"country":"US","launch_date":"2021-01-20","launch_site_code":"AFETR","launch_vehicle":null,"mission":null,"orbit_class":"UNKNOWN","rcs_meters":null,"size_class":null,"mass_kg":null,"dimensions":null,"purposes":["comms"],"wikipedia_slug":null,"has_3d_model":false,"image_url":null,"decayed_at":null,"tle_current":{"epoch":"2026-09-19T23:22:12.535680Z","epoch_age_seconds":71253,"freshness":"FRESH","line1":"1 47388U 21005AR  26262.97375620  .00033310  00000+0  97381-3 0  9995","line2":"2 47388  53.1559 241.5083 0004579  58.8002 301.3449 15.34996596312749","mean_motion":15.34996596,"eccentricity":0.0004579,"inclination_deg":53.1559,"raan_deg":241.5083,"arg_perigee_deg":58.8002,"mean_anomaly_deg":301.3449,"bstar":0.00097381,"rev_number":31274,"period_min":93.81128295349,"perigee_km":457.79899645336,"apogee_km":464.06221456649,"semimajor_km":6839.0676055099,"source":"CELESTRAK","updated_at":"2026-09-20T09:00:38.594103Z"}}}